User: anonymous   Login
Location: Unspecified
(0.0000°N, 0.0000°E)
Time: 13:47:37
(UTC+00:00)
Language:

OFEQ 7 - Orbit

View from above orbital plane
View from above orbital plane
View from above satellite
View from above satellite

Ground track
Ground track

The orbit data is extracted from the following two-line orbital elements,

1 31601U 07025A   18236.11884241 0.00001050  00000-0  41327-4 0    04
2 31601 141.7123 139.6740 0005818  98.9269 261.0724 15.24725827    02
Epoch (UTC): 24 August 2018 02:51:07
Eccentricity: 0.0005818
inclination: 141.7123°
perigee height: 487 km
apogee height: 495 km
right ascension of ascending node: 139.6740°
argument of perigee: 98.9269°
revolutions per day: 15.24725827
mean anomaly at epoch: 261.0724°
orbit number at epoch: 0

The dashed part of the orbit path shows where the satellite is in the earth's shadow,  

DLR